TimeEDT,TemperatureF,Dew PointF,Humidity,Sea Level PressureIn,VisibilityMPH,Wind Direction,Wind SpeedMPH,Gust SpeedMPH,PrecipitationIn,Events,Conditions,WindDirDegrees,DateUTC
12:15 AM,69.8,68.0,94,29.93,5.0,SSE,3.5,-,N/A,,Clear,150,2013-08-31 04:15:00
12:33 AM,68.0,66.2,94,29.93,5.0,SSE,3.5,-,N/A,,Clear,160,2013-08-31 04:33:00
12:54 AM,69.8,66.2,88,29.93,5.0,South,3.5,-,N/A,,Clear,170,2013-08-31 04:54:00
1:15 AM,68.0,66.2,94,29.92,5.0,South,3.5,-,N/A,,Clear,190,2013-08-31 05:15:00
1:36 AM,69.8,66.2,88,29.92,7.0,South,4.6,-,N/A,,Clear,180,2013-08-31 05:36:00
1:54 AM,69.8,66.2,88,29.91,7.0,South,3.5,-,N/A,,Clear,170,2013-08-31 05:54:00
2:15 AM,68.0,66.2,94,29.91,5.0,Calm,Calm,-,N/A,,Clear,0,2013-08-31 06:15:00
2:36 AM,68.0,64.4,88,29.91,5.0,Calm,Calm,-,N/A,,Clear,0,2013-08-31 06:36:00
2:54 AM,68.0,64.4,88,29.90,5.0,Calm,Calm,-,N/A,,Clear,0,2013-08-31 06:54:00
3:15 AM,68.0,64.4,88,29.90,5.0,Calm,Calm,-,N/A,,Scattered Clouds,0,2013-08-31 07:15:00
3:36 AM,66.2,64.4,94,29.90,5.0,Calm,Calm,-,N/A,,Scattered Clouds,0,2013-08-31 07:36:00
3:54 AM,66.2,64.4,94,29.90,5.0,Calm,Calm,-,N/A,,Scattered Clouds,0,2013-08-31 07:54:00
4:15 AM,66.2,64.4,94,29.90,5.0,SSW,3.5,-,N/A,,Scattered Clouds,210,2013-08-31 08:15:00
4:36 AM,66.2,64.4,94,29.89,5.0,South,3.5,-,N/A,,Clear,190,2013-08-31 08:36:00
4:54 AM,66.2,64.4,94,29.90,5.0,Calm,Calm,-,N/A,,Clear,0,2013-08-31 08:54:00
5:15 AM,66.2,64.4,94,29.89,4.0,SSW,3.5,-,N/A,,Clear,200,2013-08-31 09:15:00
5:36 AM,66.2,64.4,94,29.90,5.0,Calm,Calm,-,N/A,,Clear,0,2013-08-31 09:36:00
5:54 AM,66.2,64.4,94,29.90,4.0,Calm,Calm,-,N/A,,Clear,0,2013-08-31 09:54:00
6:15 AM,64.4,62.6,94,29.89,5.0,South,3.5,-,N/A,,Clear,190,2013-08-31 10:15:00
6:36 AM,66.2,64.4,94,29.90,5.0,Calm,Calm,-,N/A,,Clear,0,2013-08-31 10:36:00
6:54 AM,66.2,64.4,94,29.90,4.0,Calm,Calm,-,N/A,,Clear,0,2013-08-31 10:54:00
7:15 AM,66.2,64.4,94,29.90,3.0,Calm,Calm,-,N/A,,Clear,0,2013-08-31 11:15:00
7:36 AM,68.0,64.4,88,29.90,4.0,Calm,Calm,-,N/A,,Clear,0,2013-08-31 11:36:00
7:54 AM,68.0,68.0,100,29.90,10.0,Calm,Calm,-,N/A,,Clear,0,2013-08-31 11:54:00
8:15 AM,69.8,68.0,94,29.90,10.0,SW,3.5,-,N/A,,Clear,230,2013-08-31 12:15:00
8:36 AM,71.6,68.0,88,29.90,10.0,WSW,4.6,-,N/A,,Clear,240,2013-08-31 12:36:00
8:54 AM,73.4,68.0,83,29.90,10.0,WSW,3.5,-,N/A,,Clear,240,2013-08-31 12:54:00
9:15 AM,75.2,68.0,78,29.90,10.0,SSW,5.8,-,N/A,,Clear,210,2013-08-31 13:15:00
9:36 AM,77.0,68.0,74,29.91,10.0,SSW,6.9,-,N/A,,Clear,210,2013-08-31 13:36:00
9:57 AM,78.8,68.0,69,29.91,10.0,WSW,5.8,-,N/A,,Clear,240,2013-08-31 13:57:00
10:15 AM,78.8,68.0,69,29.91,10.0,SW,5.8,-,N/A,,Clear,220,2013-08-31 14:15:00
10:36 AM,80.6,68.0,65,29.91,10.0,South,4.6,-,N/A,,Clear,190,2013-08-31 14:36:00
10:57 AM,82.4,69.8,66,29.90,10.0,SW,3.5,-,N/A,,Clear,230,2013-08-31 14:57:00
11:15 AM,82.4,68.0,62,29.90,10.0,South,6.9,-,N/A,,Clear,190,2013-08-31 15:15:00
11:36 AM,82.4,68.0,62,29.90,10.0,SSW,3.5,-,N/A,,Clear,210,2013-08-31 15:36:00
11:57 AM,84.2,68.0,58,29.89,10.0,South,4.6,-,N/A,,Clear,170,2013-08-31 15:57:00
12:15 PM,86.0,68.0,55,29.88,10.0,SSW,8.1,-,N/A,,Clear,210,2013-08-31 16:15:00
12:36 PM,86.0,68.0,55,29.88,10.0,SSE,5.8,-,N/A,,Clear,160,2013-08-31 16:36:00
12:57 PM,86.0,68.0,55,29.87,10.0,SSE,8.1,-,N/A,,Clear,160,2013-08-31 16:57:00
1:15 PM,87.8,68.0,52,29.86,10.0,SW,9.2,-,N/A,,Clear,220,2013-08-31 17:15:00
1:36 PM,87.8,68.0,52,29.87,10.0,SSE,6.9,-,N/A,,Clear,150,2013-08-31 17:36:00
1:57 PM,89.6,68.0,49,29.87,10.0,SSW,8.1,-,N/A,,Scattered Clouds,200,2013-08-31 17:57:00
2:15 PM,87.8,68.0,52,29.87,10.0,South,4.6,-,N/A,,Mostly Cloudy,180,2013-08-31 18:15:00
2:36 PM,86.0,68.0,55,29.85,10.0,South,3.5,-,N/A,,Mostly Cloudy,180,2013-08-31 18:36:00
2:57 PM,89.6,68.0,49,29.85,10.0,SSE,9.2,-,N/A,,Scattered Clouds,160,2013-08-31 18:57:00
3:15 PM,87.8,68.0,52,29.84,10.0,SW,8.1,-,N/A,,Mostly Cloudy,220,2013-08-31 19:15:00
3:36 PM,89.6,64.4,43,29.84,10.0,WSW,10.4,16.1,N/A,,Scattered Clouds,240,2013-08-31 19:36:00
3:57 PM,87.8,64.4,46,29.83,10.0,SSW,10.4,-,N/A,,Scattered Clouds,200,2013-08-31 19:57:00
4:15 PM,89.6,64.4,43,29.83,10.0,SSW,10.4,-,N/A,,Scattered Clouds,200,2013-08-31 20:15:00
4:36 PM,87.8,64.4,46,29.83,10.0,SSW,8.1,-,N/A,,Clear,210,2013-08-31 20:36:00
4:57 PM,86.0,66.2,51,29.82,10.0,South,6.9,-,N/A,,Clear,180,2013-08-31 20:57:00
5:15 PM,86.0,68.0,55,29.82,10.0,SW,8.1,-,N/A,,Clear,230,2013-08-31 21:15:00
5:36 PM,86.0,68.0,55,29.82,10.0,WSW,8.1,-,N/A,,Clear,240,2013-08-31 21:36:00
5:57 PM,84.2,68.0,58,29.83,10.0,SSW,4.6,-,N/A,,Clear,200,2013-08-31 21:57:00
6:15 PM,82.4,69.8,66,29.83,10.0,South,3.5,-,N/A,,Clear,190,2013-08-31 22:15:00
6:36 PM,80.6,69.8,70,29.82,10.0,SSW,3.5,-,N/A,,Clear,200,2013-08-31 22:36:00
6:57 PM,80.6,69.8,70,29.83,10.0,South,3.5,-,N/A,,Scattered Clouds,170,2013-08-31 22:57:00
7:18 PM,80.6,69.8,70,29.83,10.0,SSE,3.5,-,N/A,,Scattered Clouds,160,2013-08-31 23:18:00
7:36 PM,78.8,69.8,74,29.84,10.0,South,4.6,-,N/A,,Mostly Cloudy,180,2013-08-31 23:36:00
7:57 PM,78.8,71.6,78,29.84,10.0,South,3.5,-,N/A,,Overcast,190,2013-08-31 23:57:00
8:18 PM,78.8,71.6,78,29.85,10.0,South,3.5,-,N/A,,Scattered Clouds,180,2013-09-01 00:18:00
8:36 PM,77.0,71.6,83,29.85,10.0,SSW,3.5,-,N/A,,Clear,200,2013-09-01 00:36:00
8:57 PM,77.0,71.6,83,29.86,10.0,Calm,Calm,-,N/A,,Clear,0,2013-09-01 00:57:00
9:18 PM,77.0,71.6,83,29.86,10.0,Calm,Calm,-,N/A,,Clear,0,2013-09-01 01:18:00
9:36 PM,75.2,71.6,89,29.86,10.0,Calm,Calm,-,N/A,,Clear,0,2013-09-01 01:36:00
9:57 PM,73.4,71.6,94,29.87,7.0,Calm,Calm,-,N/A,,Clear,0,2013-09-01 01:57:00
10:18 PM,73.4,69.8,88,29.86,7.0,SE,3.5,-,N/A,,Clear,140,2013-09-01 02:18:00
10:36 PM,73.4,69.8,88,29.86,7.0,SE,3.5,-,N/A,,Clear,140,2013-09-01 02:36:00
10:57 PM,73.4,69.8,88,29.87,7.0,Calm,Calm,-,N/A,,Clear,0,2013-09-01 02:57:00
11:18 PM,73.4,69.8,88,29.86,7.0,SSE,3.5,-,N/A,,Clear,160,2013-09-01 03:18:00
11:36 PM,71.6,69.8,94,29.86,7.0,Calm,Calm,-,N/A,,Clear,0,2013-09-01 03:36:00
11:57 PM,71.6,69.8,94,29.85,7.0,Calm,Calm,-,N/A,,Clear,0,2013-09-01 03:57:00